RH
16 17 18 20 21 20 24 24 33 50 66 79 76 70 70 74 80 86 84 57 50 50 58 69 66 74 78 96 83 62 57 63 56 42 80 79 67 67 65 71 73 90 94
17 16 19 19 20 20 23 26 35 60 66 75 77 73 74 74 78 84 85 41 39 37 37 37 35 32 32 47 81 69 55 46 52 46 73 95 70 82 89 79 88 93 90
20 18 19 19 18 18 20 23 28 42 70 81 83 81 80 79 79 74 73 47 39 38 34 32 31 31 31 61 96 85 66 59 74 59 69 74 96 88 99 91 77 67 66
22 21 21 20 19 18 18 20 23 31 53 79 86 88 87 75 69 73 58 46 45 42 35 33 32 32 34 44 85 98 95 88 86 98 96 99 99 95 98 93 82 81 88
23 24 23 21 19 18 19 19 21 27 50 75 86 80 78 75 63 60 49 48 48 42 35 33 34 33 34 35 42 78 98 98 99 98 93 97 97 92 88 90 91 90 85
26 26 24 23 20 18 18 22 20 26 42 48 66 66 72 64 57 60 54 49 46 38 36 38 35 34 36 37 38 38 39 51 73 91 93 91 93 95 91 94 94 91 90
29 28 26 26 23 20 20 22 22 25 38 45 50 66 67 64 64 60 58 54 44 46 46 45 36 36 36 35 35 34 35 39 44 66 82 91 97 97 98 90 89 89 88
31 30 30 28 24 21 22 22 24 28 34 46 66 69 71 72 67 63 61 55 57 54 47 40 34 28 20 14 10 9 12 16 20 25 39 60 77 92 92 93 98 82 94
34 33 31 32 26 22 22 22 24 24 28 39 52 60 68 56 76 68 62 61 62 53 42 31 15 8 6 5 5 6 7 7 5 4 6 23 74 92 92 94 100 99 100
38 38 35 33 27 23 23 24 26 27 29 34 41 38 32 45 62 74 78 70 69 54 27 8 8 6 5 5 7 10 8 4 3 3 5 51 92 92 94 95 96 94 92
43 42 37 35 29 24 24 27 28 29 29 30 30 40 31 32 33 52 61 79 63 40 8 6 6 6 5 6 10 4 4 4 3 3 4 38 91 93 92 78 90 91 91
44 46 42 41 33 27 27 28 29 30 31 30 30 29 29 34 30 40 48 56 32 32 6 8 8 5 6 8 5 4 4 4 4 4 4 14 33 17 10 28 72 92 93
41 44 45 42 35 30 30 31 31 32 32 31 31 30 27 22 18 12 10 11 17 15 18 10 10 6 8 5 5 4 4 5 5 5 5 6 6 6 6 8 49 90 93
38 43 48 43 36 32 32 34 34 34 35 34 30 22 16 12 9 8 6 7 24 34 38 33 14 30 14 7 8 8 23 8 9 9 9 9 9 9 10 17 58 90 92
42 49 50 42 35 34 35 36 37 37 36 28 18 11 11 9 8 6 6 6 6 24 22 33 18 36 9 9 11 9 16 21 10 10 10 10 10 10 11 12 11 37 90
45 50 50 42 36 37 38 41 43 40 29 17 12 12 9 7 6 6 6 7 7 9 28 21 14 11 10 10 11 10 10 10 10 9 9 10 11 12 12 18 38 46 78
61 57 48 40 38 40 42 55 70 70 53 21 15 11 7 7 8 8 9 10 10 11 18 28 19 11 10 12 12 13 12 12 15 11 10 10 10 10 12 13 14 18 20
69 55 46 42 45 47 74 87 76 44 22 15 9 8 8 9 10 11 11 12 12 13 16 25 25 34 21 18 20 21 35 33 57 39 15 15 14 14 16 22 27 23 18
64 56 54 59 71 93 84 67 28 14 10 8 8 9 10 10 11 12 13 13 14 16 21 32 45 61 53 40 53 40 69 68 70 48 22 20 18 20 27 32 30 29 26
74 80 92 96 92 74 55 18 10 9 8 9 10 10 10 11 13 14 14 16 18 22 26 61 66 70 72 72 73 70 68 68 73 79 51 48 39 47 42 46 39 37 31
100 100 98 83 57 25 18 17 12 10 10 10 10 10 11 13 14 15 17 22 26 35 68 77 79 78 75 71 77 78 76 76 78 78 82 87 86 84 86 82 78 69 39
100 92 96 82 53 56 41 18 12 10 10 10 10 12 14 15 16 18 22 27 28 34 69 84 84 79 78 79 80 80 84 85 81 94 91 87 84 82 82 86 63 37 36
98 99 98 98 98 78 26 14 11 11 11 11 13 15 17 16 18 22 25 27 29 38 53 64 92 87 88 89 91 90 92 94 98 94 93 96 95 85 80 80 63 43 38
100 100 100 100 86 23 15 12 12 12 13 14 17 17 16 19 23 26 28 40 45 58 64 68 88 94 94 95 98 100 99 98 98 93 96 97 90 87 85 85 75 52 45
100 100 96 33 16 17 14 14 13 14 16 18 17 18 18 22 25 30 33 74 91 94 87 56 64 68 69 68 69 82 94 100 95 90 87 94 92 91 92 92 92 83 73
100 72 24 19 20 16 15 15 15 18 19 17 18 20 24 26 26 28 48 96 94 91 94 95 83 54 45 45 43 70 100 100 100 90 92 98 90 86 100 94 95 74 75
Wind_Speed
22 21 20 19 18 18 16 16 16 16 14 14 13 12 12 11 11 10 10 6 7 8 9 9 10 10 11 10 10 11 11 11 11 11 10 11 9 4 7 7 8 11 16
21 21 21 19 18 17 17 16 16 15 15 14 14 13 12 10 10 10 9 8 6 8 9 9 9 10 11 11 11 12 12 12 12 11 10 10 11 10 11 4 4 6 8
21 20 20 20 18 17 17 18 18 16 15 14 14 12 11 10 9 9 8 8 7 7 8 9 9 10 10 11 10 11 12 12 11 13 10 10 11 11 11 9 11 11 12
22 21 21 20 18 18 17 17 17 17 16 14 13 12 10 9 8 8 8 7 6 6 7 8 8 9 9 9 9 10 11 12 12 11 13 11 13 14 14 17 15 12 12
22 22 21 20 19 19 18 18 18 17 17 15 14 12 10 9 9 8 6 5 5 5 5 6 8 8 8 7 7 8 10 10 10 10 10 11 11 10 9 10 12 14 14
23 23 22 21 21 20 19 19 18 19 17 17 16 14 12 10 8 7 6 5 4 2 3 5 8 9 9 8 8 8 8 8 7 5 6 7 8 11 10 11 13 13 12
23 23 23 22 20 19 18 17 17 19 19 19 18 15 12 10 8 8 7 5 3 1 5 8 9 9 10 10 10 10 10 11 11 12 11 10 11 11 12 11 15 15 12
23 23 22 21 20 19 18 18 18 20 20 20 12 11 8 7 9 10 9 6 3 5 8 10 11 11 10 11 11 11 12 12 12 13 14 15 15 14 14 15 16 16 16
23 22 21 20 19 19 19 19 18 18 21 23 19 9 6 6 12 12 11 8 6 6 9 11 10 10 10 11 12 13 13 14 16 17 18 17 16 15 15 16 17 17 18
24 24 22 22 21 21 21 20 19 19 19 21 20 16 8 8 8 6 13 11 9 8 9 8 9 11 13 14 14 14 17 19 19 19 18 17 15 14 15 16 18 20 22
26 24 24 24 23 22 22 21 19 18 18 17 19 18 11 10 9 5 7 8 9 9 8 8 10 11 14 14 14 19 20 20 19 19 18 16 16 16 18 20 20 20 20
28 26 25 25 24 22 21 20 19 18 17 16 14 13 11 8 7 4 4 5 6 6 9 7 8 13 14 14 19 19 19 19 19 19 18 18 19 20 22 21 20 20 20
32 30 29 27 25 23 21 19 18 17 16 14 13 11 10 8 6 5 4 4 4 7 5 8 10 13 14 19 20 20 20 19 19 19 18 19 21 22 22 22 22 21 21
36 34 31 27 25 23 22 20 18 16 15 12 11 10 8 6 4 4 3 3 4 5 7 5 12 11 16 20 21 21 19 20 19 20 20 21 22 23 24 23 22 21 21
37 35 32 30 28 25 23 20 17 15 12 10 9 7 5 3 3 4 4 5 5 3 9 7 10 11 20 21 20 21 20 22 22 21 22 23 24 24 25 25 26 24 21
39 38 35 32 30 27 24 20 16 11 8 8 7 5 4 3 3 4 5 7 7 7 7 15 16 20 22 22 23 23 23 24 23 22 22 22 24 25 26 25 25 25 22
39 40 38 35 31 29 26 20 14 11 12 12 9 6 4 3 4 5 7 9 11 11 13 16 20 22 23 23 24 24 24 24 23 22 21 21 22 24 26 26 27 28 28
39 39 38 36 34 30 24 19 14 18 16 12 9 7 4 4 5 7 10 12 14 16 17 19 20 19 22 23 23 23 21 20 19 21 22 24 24 25 24 25 25 26 26
40 39 37 37 33 28 18 19 21 18 14 11 8 6 4 5 8 11 13 15 17 18 18 18 19 17 20 20 19 20 17 17 17 21 23 24 25 24 24 24 24 25 25
45 43 39 31 29 24 25 23 20 16 13 11 7 5 5 8 11 14 16 17 17 17 17 15 15 16 16 16 16 17 18 18 18 19 21 20 23 23 24 25 25 26 24
45 38 34 31 27 26 22 19 17 14 11 9 7 6 9 11 15 16 16 15 16 16 14 14 15 16 16 16 18 19 20 19 19 18 18 19 21 22 22 22 23 24 25
40 37 32 31 26 21 19 17 14 12 9 7 6 9 12 15 15 15 15 16 16 17 14 13 15 17 18 18 19 19 21 21 22 18 18 25 22 25 25 22 25 25 27
43 39 34 28 25 20 17 16 13 10 8 7 9 12 14 15 15 14 14 15 15 15 15 15 14 16 17 17 18 20 21 23 23 21 24 27 22 23 22 22 25 27 26
39 34 29 24 20 20 19 15 12 9 8 10 12 14 14 13 13 13 13 13 14 13 13 15 16 16 17 18 19 21 25 26 25 25 20 29 24 26 23 23 26 25 27
34 30 26 25 23 21 17 13 10 9 11 12 14 14 13 12 12 12 12 11 11 12 13 13 14 17 19 20 20 21 21 23 27 25 23 27 26 25 26 26 19 22 31
29 27 27 23 22 18 14 11 10 11 11 13 14 12 13 12 12 11 10 11 13 12 13 14 14 14 15 18 19 18 17 20 23 28 19 22 26 27 28 23 22 33 33
Wind_Direction
179 176 174 170 166 162 163 160 157 156 148 144 138 134 129 125 125 123 129 136 117 98 81 68 63 57 53 45 33 26 30 23 22 17 23 16 14 319 300 304 342 348 354
184 180 177 175 172 168 166 164 160 157 156 150 143 140 137 131 129 127 123 127 100 82 74 66 55 46 42 34 38 29 28 26 22 16 22 20 2 16 2 354 299 323 338
186 183 181 180 178 173 172 169 166 161 156 155 149 145 140 136 130 131 127 121 106 83 66 53 44 40 38 44 44 29 27 27 23 15 14 11 8 7 3 6 341 350 355
188 186 185 183 180 179 176 175 172 165 163 157 154 151 149 146 138 137 133 129 114 84 64 52 41 35 31 34 39 34 27 25 25 22 10 10 11 6 1 6 358 353 346
188 189 187 184 184 183 182 181 177 175 166 158 158 155 152 149 150 145 146 138 122 100 63 44 27 19 16 13 15 28 29 21 27 18 6 1 359 350 345 338 340 333 337
189 191 189 189 188 187 188 185 185 176 171 167 161 162 161 162 159 156 164 160 145 98 44 18 8 0 357 353 349 346 343 345 357 332 322 325 333 336 336 339 328 317 315
193 193 192 192 192 192 190 188 185 182 173 172 164 161 163 168 175 177 175 179 183 308 340 343 347 346 340 335 331 331 330 327 325 331 332 329 331 327 323 322 310 313 307
198 198 196 195 194 192 190 191 190 182 183 171 167 152 155 176 189 188 189 194 233 313 326 329 330 332 332 331 330 329 327 323 320 318 317 319 325 329 329 325 309 298 299
198 200 199 198 196 195 192 191 191 196 193 184 178 164 165 194 178 205 203 217 251 290 314 322 326 332 333 330 326 324 323 326 322 318 318 317 327 331 326 316 317 313 312
198 199 199 197 197 197 195 195 194 196 199 194 192 200 212 195 179 186 219 232 245 280 310 316 322 325 330 330 327 327 328 324 321 318 317 326 333 327 320 312 312 313 312
201 200 199 200 198 199 198 199 196 196 198 205 212 208 208 194 190 170 191 199 234 270 290 298 314 318 323 326 326 325 327 326 326 325 322 325 331 326 321 320 320 316 315
201 200 200 200 199 198 195 196 196 197 196 193 197 193 196 189 200 203 174 188 210 251 293 283 304 325 325 326 325 326 327 326 325 325 324 322 319 316 315 315 316 317 317
201 201 200 199 198 195 193 192 190 190 189 187 189 193 201 208 211 221 224 248 246 282 278 303 304 324 323 326 326 326 324 324 324 323 322 319 317 315 313 312 312 313 314
202 202 199 197 196 192 190 188 187 187 185 186 194 195 194 187 200 232 255 286 313 306 300 257 316 320 325 328 325 330 325 326 327 326 325 323 322 319 317 315 312 312 310
201 199 197 194 192 189 186 184 186 185 189 193 196 190 190 202 232 258 285 304 325 316 306 292 322 309 320 324 322 324 321 317 324 323 322 322 318 316 315 314 313 310 312
201 199 194 191 187 184 180 177 175 175 191 189 191 209 220 232 264 290 314 316 330 315 291 303 309 312 321 321 322 320 315 314 314 314 314 313 313 314 314 315 314 311 309
195 194 189 186 184 180 175 181 192 208 222 213 211 209 226 265 285 309 313 321 320 319 300 301 303 312 315 318 317 315 313 312 312 313 313 309 305 304 305 307 308 308 307
194 190 183 182 182 181 192 200 205 204 204 201 199 210 225 252 298 313 313 315 315 311 304 299 306 312 315 319 316 316 313 310 307 310 318 311 311 309 306 306 306 304 301
196 190 186 186 187 192 170 190 195 194 190 194 198 210 245 286 300 307 309 308 306 303 302 301 305 306 311 316 312 312 307 305 305 309 315 312 312 310 308 309 311 308 306
194 195 195 190 180 165 180 184 185 185 186 195 206 233 274 297 305 304 303 301 298 300 303 300 301 305 305 309 305 311 309 306 307 307 309 309 313 313 316 317 315 316 314
196 186 171 162 165 172 174 183 183 185 193 205 229 269 291 297 295 294 294 296 299 301 300 299 300 299 300 304 308 312 309 310 307 308 309 313 311 310 310 313 312 310 312
173 162 161 163 170 177 179 180 187 195 207 225 259 282 290 291 290 292 294 292 294 293 291 290 291 293 296 300 304 305 304 307 305 302 305 305 305 304 306 307 308 312 313
162 164 165 168 170 179 183 181 192 206 226 252 276 284 285 288 289 289 291 294 296 294 292 290 289 292 299 301 302 303 298 296 295 301 303 300 306 305 306 302 309 315 313
160 162 168 170 173 179 185 190 200 219 252 274 279 283 289 289 291 296 298 299 301 304 300 296 292 293 294 300 298 297 297 298 296 309 308 297 304 300 305 302 309 314 318
160 162 160 169 174 185 191 198 214 240 262 277 287 292 293 290 291 292 296 296 303 303 300 299 292 296 298 299 300 298 295 300 299 302 301 296 301 299 303 303 302 311 319
156 157 165 170 180 191 198 213 238 259 275 286 288 289 289 289 290 292 295 303 299 300 307 301 300 304 306 303 305 303 302 296 297 302 301 299 301 302 299 297 295 315 319